• In Uzbekistan
  • List of Countries
  • For 7 days
  • Water Temperature
  • Weather Map
  • Weather Widgets
  • user-avatar
    Login

    Hourly Weather Debrecen

    Today, 19 November, Tuesday

    Time Temperature Precipitation Wind Pressure Humidity
    00:00 +10°C° 0 mm 1 mps 755 mmHg 74%
    01:00 +9°C° 0 mm 1 mps 756 mmHg 76%
    02:00 +9°C° 0 mm 1 mps 756 mmHg 76%
    03:00 +8°C° 0 mm 2 mps 756 mmHg 76%
    04:00 +8°C° 0 mm 2 mps 756 mmHg 77%
    05:00 +8°C° 0 mm 2 mps 756 mmHg 78%
    06:00 +8°C° 0 mm 2 mps 756 mmHg 79%
    07:00 +7°C° 0 mm 3 mps 756 mmHg 80%
    08:00 +9°C° 0 mm 3 mps 756 mmHg 76%
    09:00 +11°C° 0 mm 3 mps 756 mmHg 71%
    10:00 +12°C° 0 mm 3 mps 756 mmHg 67%
    11:00 +13°C° 0 mm 3 mps 756 mmHg 64%
    12:00 +14°C° 0 mm 3 mps 755 mmHg 62%
    13:00 +16°C° 0 mm 2 mps 755 mmHg 60%
    14:00 +15°C° 0 mm 2 mps 755 mmHg 64%
    15:00 +14°C° 0 mm 2 mps 755 mmHg 69%
    16:00 +13°C° 0 mm 2 mps 754 mmHg 73%
    17:00 +13°C° 0 mm 2 mps 754 mmHg 74%
    18:00 +12°C° 0 mm 2 mps 754 mmHg 74%
    19:00 +12°C° 0 mm 2 mps 754 mmHg 74%
    20:00 +12°C° 0 mm 2 mps 754 mmHg 74%
    21:00 +12°C° 0 mm 2 mps 754 mmHg 74%
    22:00 +10°C° 0 mm 2 mps 754 mmHg 73%
    23:00 +10°C° 0 mm 2 mps 754 mmHg 75%

    Tomorrow, 20 November, Wednesday

    Time Temperature Precipitation Wind Pressure Humidity
    00:00 +10°C° 0 mm 2 mps 754 mmHg 77%
    01:00 +9°C° 0 mm 2 mps 754 mmHg 79%
    02:00 +9°C° 0 mm 2 mps 753 mmHg 81%
    03:00 +9°C° 0 mm 3 mps 753 mmHg 82%
    04:00 +9°C° 0 mm 3 mps 752 mmHg 83%
    05:00 +9°C° 0 mm 3 mps 752 mmHg 83%
    06:00 +9°C° 0 mm 3 mps 752 mmHg 82%
    07:00 +9°C° 0 mm 3 mps 752 mmHg 82%
    08:00 +10°C° 0 mm 4 mps 751 mmHg 76%
    09:00 +11°C° 0 mm 4 mps 751 mmHg 70%
    10:00 +13°C° 0 mm 5 mps 751 mmHg 64%
    11:00 +14°C° 0 mm 5 mps 751 mmHg 61%
    12:00 +15°C° 0 mm 5 mps 750 mmHg 57%
    13:00 +16°C° 0 mm 5 mps 750 mmHg 53%
    14:00 +15°C° 0 mm 4 mps 750 mmHg 57%
    15:00 +14°C° 0 mm 3 mps 749 mmHg 61%
    16:00 +14°C° 0 mm 2 mps 749 mmHg 64%
    17:00 +13°C° 0.3 mm 2 mps 749 mmHg 70%
    18:00 +12°C° 0.3 mm 2 mps 749 mmHg 75%
    19:00 +12°C° 0.3 mm 2 mps 749 mmHg 81%
    20:00 +12°C° 1 mm 2 mps 750 mmHg 84%
    21:00 +11°C° 1 mm 3 mps 750 mmHg 87%
    22:00 +10°C° 1 mm 4 mps 750 mmHg 90%
    23:00 +11°C° 0.4 mm 4 mps 750 mmHg 90%

    Day after tomorrow, 21 November, Thursday

    Time Temperature Precipitation Wind Pressure Humidity
    00:00 +11°C° 0.4 mm 4 mps 750 mmHg 89%
    01:00 +11°C° 0.4 mm 4 mps 750 mmHg 89%
    02:00 +11°C° 0.1 mm 3 mps 750 mmHg 89%
    03:00 +10°C° 0.1 mm 3 mps 750 mmHg 89%
    04:00 +10°C° 0.1 mm 3 mps 750 mmHg 88%
    05:00 +10°C° 0 mm 2 mps 750 mmHg 89%
    06:00 +10°C° 0 mm 2 mps 750 mmHg 89%
    07:00 +9°C° 0 mm 2 mps 750 mmHg 89%
    08:00 +10°C° 1.6 mm 2 mps 750 mmHg 91%
    09:00 +10°C° 1.6 mm 2 mps 750 mmHg 93%
    10:00 +10°C° 1.6 mm 2 mps 750 mmHg 95%
    11:00 +10°C° 0.7 mm 2 mps 750 mmHg 92%
    12:00 +11°C° 0.7 mm 3 mps 750 mmHg 89%
    13:00 +11°C° 0.7 mm 3 mps 750 mmHg 87%
    14:00 +11°C° 0 mm 3 mps 750 mmHg 86%
    15:00 +12°C° 0 mm 2 mps 750 mmHg 85%
    16:00 +12°C° 0 mm 2 mps 750 mmHg 84%
    17:00 +12°C° 0.1 mm 2 mps 751 mmHg 84%
    18:00 +12°C° 0.1 mm 2 mps 751 mmHg 84%
    19:00 +10°C° 0.1 mm 2 mps 751 mmHg 84%
    20:00 +10°C° 0.2 mm 2 mps 751 mmHg 85%
    21:00 +10°C° 0.2 mm 2 mps 752 mmHg 86%
    22:00 +10°C° 0.2 mm 2 mps 752 mmHg 87%
    23:00 +10°C° 0.2 mm 2 mps 752 mmHg 87%

    22 November, Friday

    Time Temperature Precipitation Wind Pressure Humidity
    00:00 +10°C° 0.2 mm 1 mps 752 mmHg 87%
    01:00 +10°C° 0.2 mm 1 mps 752 mmHg 87%
    02:00 +9°C° 0 mm 2 mps 752 mmHg 87%
    03:00 +9°C° 0 mm 2 mps 752 mmHg 86%
    04:00 +9°C° 0 mm 2 mps 752 mmHg 86%
    05:00 +9°C° 0 mm 2 mps 752 mmHg 85%
    06:00 +8°C° 0 mm 2 mps 752 mmHg 85%
    07:00 +8°C° 0 mm 2 mps 752 mmHg 84%
    08:00 +9°C° 0 mm 2 mps 752 mmHg 80%
    09:00 +10°C° 0 mm 2 mps 752 mmHg 76%
    10:00 +12°C° 0 mm 2 mps 753 mmHg 72%
    11:00 +13°C° 0 mm 2 mps 752 mmHg 70%
    12:00 +13°C° 0 mm 2 mps 752 mmHg 67%
    13:00 +14°C° 0 mm 2 mps 752 mmHg 65%
    14:00 +13°C° 0 mm 2 mps 752 mmHg 68%
    15:00 +12°C° 0 mm 2 mps 752 mmHg 71%
    16:00 +12°C° 0 mm 1 mps 751 mmHg 75%
    17:00 +11°C° 0 mm 1 mps 752 mmHg 76%
    18:00 +11°C° 0 mm 1 mps 752 mmHg 77%
    19:00 +11°C° 0 mm 1 mps 752 mmHg 78%
    20:00 +11°C° 0.2 mm 1 mps 752 mmHg 81%
    21:00 +11°C° 0.2 mm 1 mps 752 mmHg 84%
    22:00 +11°C° 0.2 mm 1 mps 752 mmHg 87%
    23:00 +11°C° 0.9 mm 1 mps 752 mmHg 90%

    23 November, Saturday

    Time Temperature Precipitation Wind Pressure Humidity
    00:00 +10°C° 0.9 mm 1 mps 752 mmHg 92%
    01:00 +10°C° 0.9 mm 1 mps 752 mmHg 95%
    02:00 +10°C° 0.2 mm 1 mps 751 mmHg 95%
    03:00 +9°C° 0.2 mm 2 mps 751 mmHg 95%
    04:00 +9°C° 0.2 mm 2 mps 751 mmHg 94%
    05:00 +9°C° 0 mm 2 mps 751 mmHg 92%
    06:00 +9°C° 0 mm 2 mps 751 mmHg 91%
    07:00 +9°C° 0 mm 2 mps 751 mmHg 89%
    08:00 +10°C° 0 mm 1 mps 751 mmHg 85%
    09:00 +11°C° 0 mm 1 mps 752 mmHg 81%
    10:00 +12°C° 0 mm 1 mps 752 mmHg 77%
    11:00 +12°C° 0 mm 1 mps 751 mmHg 74%
    12:00 +13°C° 0 mm 1 mps 751 mmHg 71%
    13:00 +14°C° 0 mm 1 mps 751 mmHg 67%
    14:00 +13°C° 0 mm 1 mps 751 mmHg 70%
    15:00 +13°C° 0 mm 1 mps 751 mmHg 72%
    16:00 +12°C° 0 mm 1 mps 751 mmHg 74%
    17:00 +12°C° 0 mm 1 mps 751 mmHg 74%
    18:00 +12°C° 0 mm 1 mps 751 mmHg 75%
    19:00 +11°C° 0 mm 1 mps 751 mmHg 75%
    20:00 +11°C° 0 mm 1 mps 751 mmHg 76%
    21:00 +11°C° 0 mm 1 mps 751 mmHg 76%
    22:00 +10°C° 0 mm 1 mps 751 mmHg 77%
    23:00 +10°C° 0 mm 1 mps 751 mmHg 77%

    24 November, Sunday

    Time Temperature Precipitation Wind Pressure Humidity
    00:00 +10°C° 0 mm 1 mps 751 mmHg 77%
    01:00 +10°C° 0 mm 1 mps 751 mmHg 77%
    02:00 +10°C° 0 mm 1 mps 751 mmHg 78%
    03:00 +10°C° 0 mm 1 mps 751 mmHg 78%
    04:00 +10°C° 0 mm 1 mps 751 mmHg 78%
    05:00 +10°C° 0 mm 1 mps 751 mmHg 78%
    06:00 +10°C° 0 mm 1 mps 751 mmHg 78%
    07:00 +10°C° 0 mm 1 mps 752 mmHg 78%
    08:00 +11°C° 0 mm 1 mps 752 mmHg 75%
    09:00 +11°C° 0 mm 1 mps 752 mmHg 72%
    10:00 +12°C° 0 mm 1 mps 753 mmHg 69%
    11:00 +13°C° 0 mm 1 mps 752 mmHg 67%
    12:00 +13°C° 0 mm 1 mps 752 mmHg 64%
    13:00 +14°C° 0 mm 1 mps 752 mmHg 62%
    14:00 +13°C° 0 mm 1 mps 752 mmHg 66%
    15:00 +12°C° 0 mm 1 mps 752 mmHg 70%
    16:00 +11°C° 0 mm 1 mps 752 mmHg 74%
    17:00 +11°C° 0 mm 1 mps 752 mmHg 75%
    18:00 +10°C° 0 mm 1 mps 752 mmHg 77%
    19:00 +10°C° 0 mm 1 mps 752 mmHg 78%
    20:00 +10°C° 0 mm 1 mps 753 mmHg 78%
    21:00 +8°C° 0 mm 0 mps 753 mmHg 79%
    22:00 +8°C° 0 mm 0 mps 753 mmHg 79%
    23:00 +8°C° 0 mm 0 mps 753 mmHg 80%
    Show more